Location: Unspecified
(43.0000°N, 0.0000°E)
Time: 09:04:05
(UTC+00:00)

PicSat - Pass Details

Date: 24 July 2019
Orbit: 486 x 500 km, 97.5° (Epoch: 23 August)

Event Time Altitude Azimuth Distance (km) Brightness Sun altitude
Exits shadow 20:37:52 13° 100° (E) 1,519 ? -11.0°
Maximum altitude 20:39:39 17° 67° (ENE) 1,297 ? -11.3°
Drops below altitude 10° 20:42:06 10° 24° (NNE) 1,694 ? -11.6°
Sets 20:44:41 0° 5° (N) 2,579 ? -12.0°
